Regional Weather Roundup
Issued by NWS Boston, MA

Home | Current Version | Previous Version | Text Only | Print | Product List | Glossary On
Versions: 1 2 3 4 5 6 7 8 9 10 11 12 13 14 15 16 17 18 19 20 21 22 23 24 25 26 27
000
ASUS41 KBOX 242110
RWRBOX

REGIONAL WEATHER ROUNDUP
NATIONAL WEATHER SERVICE TAUNTON MA
500 PM EDT FRI MAR 24 2017

NOTE:  "FAIR" INDICATES FEW OR NO CLOUDS BELOW 12,000 FEET WITH NO
SIGNIFICANT WEATHER AND/OR OBSTRUCTIONS TO VISIBILITY.

MAZALL-242200-
EASTERN MASSACHUSETTS

CITY           SKY/WX    TMP DP  RH WIND       PRES   REMARKS
BOSTON         CLOUDY    41  30  65 SW18      30.13F
BEVERLY        CLOUDY    38  35  89 S5        30.13F
LAWRENCE       CLOUDY    35  34  96 CALM      30.15F
BEDFORD        CLOUDY    39  29  67 SW9       30.11F
BLUE HILL        N/A     39  25  57 SW21G32   30.10F WCI  29
NORWOOD        CLOUDY    44  28  53 S9        30.14F
MARSHFIELD     CLOUDY    43  32  65 SW12G24   30.15F
PLYMOUTH       CLOUDY    42  33  70 SW20G26   30.16F
TAUNTON        CLOUDY    44  32  62 SW14G23   30.16F
NEW BEDFORD    PTSUNNY   44  34  67 SW18G26   30.17F
$$

MAZALL-242200-
CAPE COD AND THE ISLANDS

CITY           SKY/WX    TMP DP  RH WIND       PRES   REMARKS
FALMOUTH       CLOUDY    43  30  61 MISG      30.18F
HYANNIS        CLOUDY    40  35  83 S15G22    30.17F WCI  32
CHATHAM        CLOUDY    41  35  79 S15G25    30.21F
PROVINCETOWN   CLOUDY    39  34  82 S15G22    30.18F WCI  31
NANTUCKET      CLOUDY    42  36  79 S17       30.21F
MARTHAS VNYRD  CLOUDY    43  36  76 S17G28    30.20F
$$

MAZALL-242200-
CENTRAL AND WESTERN MASSACHUSETTS

CITY           SKY/WX    TMP DP  RH WIND       PRES   REMARKS
WORCESTER      CLOUDY    38  25  59 SW17      30.09F WCI  28
FITCHBURG      CLOUDY    40  32  73 CALM      30.11F
ORANGE         CLOUDY    38  29  70 S8        30.10F
SPRINGFIELD    CLOUDY    43  28  54 S14       30.10F
WESTFIELD      CLOUDY    41  30  65 S16       30.10F
NORTH ADAMS    CLOUDY    38  30  73 SE6       30.06F
PITTSFIELD     CLOUDY    37  29  72 SW15G21   30.05F WCI  28
$$

RIZALL-242200-
RHODE ISLAND

CITY           SKY/WX    TMP DP  RH WIND       PRES   REMARKS
PROVIDENCE     CLOUDY    45  28  51 SW14G24   30.17F
NEWPORT        CLOUDY    44  35  70 SW15G25   30.17F
BLOCK ISLAND   CLOUDY    44  35  70 SW23G31   30.17F
SMITHFIELD     CLOUDY    42  25  50 SW10G17   30.13F
WESTERLY       CLOUDY    46  34  62 SW15G23   30.19F
$$

CTZALL-242200-
CONNECTICUT

CITY           SKY/WX    TMP DP  RH WIND       PRES   REMARKS
BRADLEY INTL   PTSUNNY   44  29  55 SW12      30.13F
HARTFORD       CLOUDY    46  29  51 S9        30.15F
BRIDGEPORT     CLOUDY    46  32  58 SW7       30.17F
DANBURY        CLOUDY    46  29  51 SW9       30.15F
GROTON         CLOUDY    45  31  58 SW15      30.18F
NEW HAVEN      CLOUDY    43  31  62 SW7       30.17F
CHESTER        NOT AVBL
MERIDEN        CLOUDY    47  29  49 S7        30.16S
WILLIMANTIC    CLOUDY    46  27  47 S13G23    30.15F
OXFORD         PTSUNNY   45  27  49 SW9       30.15S
$$

MEZ002-015-021-024-NHZ003-005-008-011-012-014-VTZ005-008-242200-
NORTHERN NEW ENGLAND

CITY           SKY/WX    TMP DP  RH WIND       PRES   REMARKS
PORTLAND ME    LGT SNOW  33  31  92 S8        30.16F FOG     WCI  26
BANGOR ME      LGT SNOW  31  30  96 S9        30.14F VSB 1   WCI  23
CONCORD NH     LGT RAIN  33  31  92 SE5       30.12S FOG     WCI  29
MANCHESTER NH  NOT AVBL
NASHUA NH      NOT AVBL
PORTSMOUTH NH  LGT RAIN  34  33  94 SE6       30.12F FOG     WCI  29
JAFFREY NH     CLOUDY    36  30  79 VRB7      30.07F WCI  30
KEENE NH       NOT AVBL
BURLINGTON VT  RAIN      34  30  85 S13G23    30.02R FOG     WCI  25
MT. WASHINGTON SNOW      18  18 100 W49G58      N/A  VSB 0   WCI  -6
$$

NYZ052-076-242200-
EASTERN NEW YORK

CITY           SKY/WX    TMP DP  RH WIND       PRES   REMARKS
ALBANY         CLOUDY    40  30  67 S15G28    30.06F WCI  32
NEW YORK CITY  CLOUDY    55  31  39 SW14G22   30.14F
$$

ANZALL-242200-
MARINE OBSERVATIONS

STATION/POSITION TIME  TEMP    WIND        PRES    VSBY  WAVE
                       AIR SEA DIR/SP/G                  HT/PER
                 (UTC) (F)     (DEG/KT/KT) (MB)    (MI)  (FT/S)
BOSTON BUOY      1950   39 40  170/ 14/ 16 1022.2          3/ 5
BUZZARDS BAY     2000   41     200/ 25/ 28 1023.0F
NANTUCKET SOUND  2050      38              1022.8F         2/ 4
MASS BAY-STELLWA 2004   39 39  180/ 17/ 21 1020.7F         5/ 5
ISLE OF SHOALS   2000   35     180/ 18/ 19 1021.2F
S OF BLOCK IS    2055      40                N/A           6/ 6
$$

......................KEY.........................
  SKY/WX - SKY CONDITION/PRESENT WEATHER
  TMP    - TEMPERATURE IN FAHRENHEIT
  DWPT   - DEWPOINT IN FAHRENHEIT
  RH     - RELATIVE HUMIDITY IN PERCENT
  WIND   - DIRECTION AND SPEED IN MPH
  PRES   - MEAN SEA LEVEL PRESSURE IN INCHES OF HG
  WCI    - WIND CHILL INDEX
  VSB    - VISIBILITY IN MILES
  HX     - HEAT INDEX
  TC     - TEMPERATURE IN CELSIUS
  VRB    - VARIABLE WIND DIRECTION
  N/A    - NOT AVAILABLE




USA.gov is the U.S. government's official web portal to all federal, state and local government web resources and services.